CW6888 Weather Reports


Display with metric or nautical units.
time (UTC)temp
F
wind
direction
speed
MPH
gust
MPH
rain 1hr
in
rain 24hr
in
rain mn
in
humidity
%
barometer
mb
20260905001818 77 22 0.0 0.0 0.00 0.11 0.00 86 1012.7
20260905000816 78 22 0.0 0.0 0.00 0.11 0.00 86 1012.7
20260904235826 78 22 0.0 0.0 0.00 0.11 0.00 85 1012.6
20260904234825 78 22 0.0 0.0 0.00 0.11 0.00 85 1012.8
20260904233824 78 22 0.0 0.0 0.00 0.11 0.00 85 1012.8
20260904232843 79 22 0.0 0.0 0.00 0.11 0.00 85 1013.1
20260904231840 79 22 0.0 0.0 0.00 0.11 0.00 84 1013.1
20260904230838 79 22 0.0 0.0 0.00 0.11 0.00 83 1012.9
20260904225824 79 22 0.0 0.0 0.00 0.11 0.00 82 1012.8
20260904224824 80 22 0.0 0.0 0.00 0.11 0.00 83 1012.8
20260904223820 80 22 0.0 0.0 0.00 0.11 0.00 82 1012.7
20260904222832 81 22 0.0 0.0 0.00 0.11 0.00 82 1012.9
20260904221826 81 22 0.0 0.0 0.00 0.11 0.00 81 1013.1
20260904220817 81 22 0.0 0.0 0.00 0.11 0.00 82 1013.0
20260904215835 82 22 0.0 0.0 0.00 0.11 0.00 82 1013.1
20260904214822 81 22 0.0 0.0 0.00 0.11 0.00 79 1013.0
20260904213835 82 22 0.0 0.0 0.00 0.11 0.00 80 1013.2
20260904212839 81 22 0.0 0.0 0.00 0.11 0.00 80 1013.4
20260904211825 82 22 0.0 0.0 0.00 0.11 0.00 77 1013.3
20260904210821 82 22 0.0 0.0 0.00 0.11 0.00 78 1013.5
20260904205831 82 22 0.0 0.0 0.00 0.11 0.00 77 1013.6
20260904204827 83 22 0.0 0.0 0.00 0.11 0.00 76 1013.9
20260904203820 83 21 0.0 1.0 0.00 0.11 0.00 76 1013.6
20260904202833 83 21 0.0 4.0 0.00 0.11 0.00 76 1013.8
20260904201817 82 5 2.0 4.0 0.00 0.11 0.00 76 1013.8
20260904200841 82 28 2.0 5.0 0.00 0.11 0.00 75 1014.0
20260904195846 83 11 1.0 6.0 0.00 0.11 0.00 74 1013.8
20260904194815 83 44 4.0 9.0 0.00 0.11 0.00 73 1013.3
20260904193830 84 29 3.0 9.0 0.00 0.11 0.00 73 1013.6
20260904192848 84 59 4.0 11.0 0.00 0.11 0.00 72 1013.7
20260904191823 84 329 4.0 11.0 0.00 0.11 0.00 72 1014.1
20260904190838 84 15 6.0 14.0 0.00 0.11 0.00 72 1014.3
20260904185823 83 360 2.0 6.0 0.00 0.11 0.00 75 1014.6
20260904184836 83 351 3.0 9.0 0.00 0.11 0.00 74 1014.7
20260904183820 84 355 3.0 12.0 0.00 0.11 0.00 74 1014.9
20260904182842 84 31 4.0 11.0 0.00 0.11 0.00 72 1014.8
20260904181853 83 5 5.0 8.0 0.00 0.11 0.00 74 1014.8
20260904180816 83 243 1.0 5.0 0.00 0.11 0.00 75 1014.9
20260904175832 83 13 3.0 8.0 0.00 0.11 0.00 74 1014.7
20260904174816 82 41 1.0 6.0 0.00 0.11 0.00 74 1014.8
20260904173831 82 165 1.0 6.0 0.00 0.11 0.00 73 1014.9
20260904172826 82 13 2.0 5.0 0.00 0.11 0.00 77 1014.9
20260904171838 81 42 3.0 8.0 0.00 0.11 0.00 78 1015.0
20260904170832 81 80 4.0 7.0 0.00 0.11 0.00 76 1015.1
20260904165820 81 51 5.0 12.0 0.00 0.11 0.00 76 1015.0
20260904164837 80 48 2.0 9.0 0.00 0.11 0.00 77 1015.1
20260904163814 80 258 2.0 5.0 0.00 0.11 0.00 79 1015.2
20260904162846 79 115 2.0 8.0 0.00 0.11 0.00 77 1015.2
20260904161821 79 13 4.0 9.0 0.00 0.11 0.00 78 1015.4
20260904160817 79 32 2.0 12.0 0.00 0.11 0.00 80 1015.4
20260904155828 78 42 6.0 12.0 0.00 0.12 0.00 79 1015.3
20260904154817 78 55 4.0 8.0 0.00 0.12 0.00 80 1015.5
20260904153833 78 35 4.0 13.0 0.00 0.12 0.00 78 1015.5
20260904152818 78 45 3.0 8.0 0.00 0.12 0.00 79 1015.6
20260904151813 78 66 6.0 10.0 0.00 0.12 0.00 79 1015.5
20260904150829 77 42 6.0 11.0 0.00 0.12 0.00 81 1015.5
20260904145818 77 67 5.0 10.0 0.00 0.12 0.00 82 1015.6
20260904144814 77 41 5.0 11.0 0.00 0.12 0.00 82 1015.5
20260904143829 76 37 2.0 9.0 0.00 0.12 0.00 82 1015.4
20260904142825 76 42 3.0 10.0 0.00 0.12 0.00 83 1015.5
20260904141813 76 355 3.0 11.0 0.00 0.12 0.00 83 1015.4
20260904140828 76 21 6.0 11.0 0.00 0.12 0.00 83 1015.7
20260904135820 75 44 6.0 13.0 0.00 0.12 0.00 83 1015.6
20260904134818 75 325 6.0 11.0 0.00 0.12 0.00 83 1015.3
20260904133814 74 88 6.0 13.0 0.00 0.12 0.00 83 1015.2
20260904132831 74 23 3.0 9.0 0.00 0.12 0.00 84 1015.3
20260904131827 74 334 3.0 9.0 0.00 0.12 0.00 85 1015.3
20260904130813 74 43 5.0 11.0 0.00 0.12 0.00 85 1015.5
20260904125831 73 48 5.0 11.0 0.00 0.12 0.00 85 1015.4
20260904124848 73 344 7.0 13.0 0.00 0.12 0.00 86 1015.5
20260904123815 73 5 6.0 11.0 0.00 0.12 0.00 86 1015.5
20260904122831 73 27 6.0 11.0 0.00 0.12 0.00 86 1015.6
20260904121827 72 26 6.0 10.0 0.00 0.12 0.00 86 1015.7
20260904120824 72 19 5.0 12.0 0.00 0.12 0.00 86 1015.6
20260904115829 71 11 4.0 8.0 0.00 0.12 0.00 88 1015.5
20260904114827 70 32 4.0 8.0 0.00 0.12 0.00 90 1015.3
20260904113823 69 38 1.0 3.0 0.00 0.12 0.00 91 1015.3
20260904112840 69 37 0.0 2.0 0.00 0.12 0.00 91 1015.2
20260904111856 68 38 1.0 5.0 0.00 0.12 0.00 92 1015.1
20260904110831 68 29 1.0 4.0 0.00 0.12 0.00 93 1014.9
20260904105823 68 123 1.0 3.0 0.00 0.67 0.00 93 1014.7
20260904104834 68 155 0.0 2.0 0.00 0.67 0.00 92 1014.6
20260904103821 68 155 0.0 1.0 0.00 0.67 0.00 93 1014.7
20260904102817 69 155 0.0 1.0 0.00 0.67 0.00 93 1014.8
20260904101813 69 155 0.0 2.0 0.00 0.67 0.00 93 1014.6
20260904100829 69 155 0.0 3.0 0.00 0.67 0.00 93 1014.8
20260904095818 69 112 0.0 2.0 0.00 0.69 0.00 93 1014.9
20260904094834 69 112 0.0 0.0 0.00 0.69 0.00 93 1014.6
20260904093820 69 114 0.0 0.0 0.00 0.69 0.00 93 1014.6
20260904092816 69 114 0.0 0.0 0.00 0.69 0.00 93 1014.4
20260904091832 69 114 0.0 0.0 0.00 0.69 0.00 93 1014.6
20260904090827 69 114 0.0 0.0 0.00 0.69 0.00 93 1014.5
20260904085816 69 114 0.0 0.0 0.00 0.73 0.00 92 1014.7
20260904084832 69 114 0.0 0.0 0.00 0.73 0.00 92 1014.7
20260904083828 69 114 0.0 0.0 0.00 0.73 0.00 92 1014.8
20260904082844 69 114 0.0 1.0 0.00 0.73 0.00 92 1014.9
20260904081838 70 114 1.0 1.0 0.00 0.73 0.00 92 1014.8
20260904080836 70 114 0.0 0.0 0.00 0.73 0.00 92 1014.7
20260904075815 69 113 0.0 1.0 0.00 0.73 0.00 92 1014.6
20260904074841 70 113 0.0 2.0 0.00 0.73 0.00 92 1014.6
20260904073827 70 114 1.0 2.0 0.00 0.73 0.00 91 1014.5
20260904072844 70 114 0.0 1.0 0.00 0.73 0.00 91 1014.4
20260904071819 70 114 0.0 0.0 0.00 0.73 0.00 91 1014.2
20260904070836 70 114 0.0 0.0 0.00 0.73 0.00 91 1014.0
20260904065822 70 114 0.0 0.0 0.00 0.73 0.00 91 1014.1
20260904064849 71 109 0.0 0.0 0.00 0.73 0.00 90 1013.9
20260904063813 71 109 0.0 2.0 0.00 0.73 0.00 90 1013.8
20260904062829 71 94 0.0 0.0 0.00 0.73 0.00 89 1013.7
20260904061825 71 94 0.0 1.0 0.00 0.73 0.00 88 1013.5
20260904060837 72 94 0.0 1.0 0.00 0.73 0.00 86 1013.7
20260904055825 72 94 1.0 2.0 0.00 0.73 0.00 85 1013.5
20260904054821 72 74 1.0 2.0 0.00 0.73 0.00 83 1013.6
20260904053816 72 68 0.0 3.0 0.00 0.73 0.00 85 1013.8
20260904052832 72 69 1.0 5.0 0.00 0.73 0.00 85 1013.8
20260904051830 72 39 1.0 4.0 0.00 0.73 0.00 86 1013.7
20260904050816 73 91 0.0 3.0 0.00 0.73 0.00 85 1013.7
20260904045825 73 91 1.0 5.0 0.00 0.73 0.00 86 1013.8
20260904044821 73 155 0.0 2.0 0.00 0.73 0.00 86 1013.9
20260904043817 74 155 0.0 5.0 0.00 0.73 0.00 86 1014.2
20260904042830 74 91 2.0 5.0 0.00 0.73 0.00 86 1014.2
20260904041825 75 192 1.0 5.0 0.01 0.73 0.00 85 1014.4
20260904040841 75 26 4.0 11.0 0.01 0.73 0.00 87 1014.8
20260904035830 75 65 6.0 13.0 0.01 0.73 0.73 90 1015.1
20260904034818 75 343 0.0 9.0 0.01 0.73 0.73 91 1015.2
20260904033814 75 38 0.0 7.0 0.11 0.73 0.73 92 1015.5
20260904032832 75 43 0.0 2.0 0.11 0.73 0.73 92 1015.5
20260904031826 75 140 0.0 0.0 0.10 0.72 0.72 92 1015.8
20260904030822 75 140 0.0 0.0 0.10 0.72 0.72 92 1015.8
20260904025830 75 140 0.0 2.0 0.10 0.72 0.72 91 1015.7
20260904024826 75 137 2.0 5.0 0.10 0.72 0.72 90 1015.4
20260904023842 75 175 0.0 0.0 0.00 0.62 0.62 90 1015.5
20260904022857 76 175 0.0 0.0 0.00 0.62 0.62 90 1015.5
20260904021823 76 175 0.0 0.0 0.00 0.62 0.62 89 1015.4
20260904020818 77 175 0.0 0.0 0.00 0.62 0.62 88 1015.4
20260904015827 77 175 0.0 0.0 0.00 0.62 0.62 87 1015.3
20260904014823 77 175 0.0 0.0 0.00 0.62 0.62 87 1015.1
20260904013818 77 175 0.0 0.0 0.00 0.62 0.62 87 1014.9
20260904012814 77 175 0.0 0.0 0.00 0.62 0.62 87 1014.8
20260904011850 77 175 0.0 0.0 0.00 0.62 0.62 87 1014.9
20260904010825 77 175 0.0 0.0 0.00 0.62 0.62 87 1015.1
20260904005815 77 175 0.0 0.0 0.00 0.62 0.62 87 1015.3
20260904004826 77 175 0.0 0.0 0.00 0.62 0.62 87 1015.4
20260904003813 77 175 0.0 0.0 0.00 0.62 0.62 87 1015.4
20260904002825 77 175 0.0 0.0 0.00 0.62 0.62 87 1015.5